Weather History for Enid, OK

Change the Weather History Date:

Friday, September 27, 2013

  Actual Average Record
Temperature  
Mean Temperature 74 °F -  
Max Temperature 89 °F 76 °F 95 °F (1998)
Min Temperature 60 °F 56 °F 42 °F (2000)
Cooling Degree Days 10    
Growing Degree Days 24 (Base 50)    
Moisture  
Dew Point 60 °F    
Average Humidity 64    
Maximum Humidity 88    
Minimum Humidity 38    
Precipitation  
Precipitation 0.00 in - - ()
Sea Level Pressure  
Sea Level Pressure 29.83 in    
Wind  
Wind Speed 11 mph (SSE)    
Max Wind Speed 23 mph    
Max Gust Speed 32 mph    
Visibility 10 miles    
Events      
Averages and records for this station are not official NWS values.
T = Trace of Precipitation, MM = Missing Value Source: NWS Daily Summary

Daily Weather History Graph

Daily Weather History Graph

Search for Another Location

Airport:

Trip Planner

Search our weather history database for the weather conditions in past years. The results will help you decide how hot, cold, wet, or windy it might be!

Date:

Astronomy

Sep. 27, 2013 Rise Set
Actual Time 7:23 AM CDT 7:20 PM CDT
Civil Twilight 6:57 AM CDT 7:45 PM CDT
Nautical Twilight 6:27 AM CDT 8:15 PM CDT
Astronomical Twilight 5:57 AM CDT 8:45 PM CDT
Moon 12:29 AM CDT (9/27) 2:50 PM CDT (9/27)
Length of Visible Light 12h 48m
Length of Day
11h 56m
Last Quarter, 45% of the Moon is Illuminated
Sep 27
Last Quarter
Oct 4
New
Oct 11
First Quarter
Oct 18
Full
Oct 26
Last Quarter

Hourly Weather History & Observations

Time (CDT) Temp. Heat Index Dew Point Humidity Pressure Visibility Wind Dir Wind Speed Gust Speed Precip Events Conditions
12:15 AM 71.6 °F - 59.0 °F 64% 29.83 in 10.0 mi South 8.1 mph - N/A   Clear
12:35 AM 69.8 °F - 59.0 °F 68% 29.83 in 10.0 mi South 5.8 mph - N/A   Clear
12:55 AM 68.0 °F - 59.0 °F 73% 29.84 in 10.0 mi South 8.1 mph - N/A   Clear
1:15 AM 66.2 °F - 57.2 °F 73% 29.84 in 10.0 mi SSE 6.9 mph - N/A   Clear
1:35 AM 64.4 °F - 57.2 °F 77% 29.84 in 10.0 mi SSE 8.1 mph - N/A   Clear
1:55 AM 66.2 °F - 55.4 °F 68% 29.85 in 10.0 mi SSE 8.1 mph - N/A   Clear
2:15 AM 64.4 °F - 55.4 °F 73% 29.85 in 10.0 mi SSE 10.4 mph - N/A   Clear
2:35 AM 66.2 °F - 55.4 °F 68% 29.85 in 10.0 mi SSE 11.5 mph - N/A   Clear
2:55 AM 66.2 °F - 55.4 °F 68% 29.85 in 10.0 mi South 11.5 mph - N/A   Clear
3:15 AM 64.4 °F - 55.4 °F 73% 29.85 in 10.0 mi South 9.2 mph - N/A   Clear
3:35 AM 64.4 °F - 55.4 °F 73% 29.85 in 10.0 mi South 8.1 mph - N/A   Clear
3:55 AM 62.6 °F - 55.4 °F 77% 29.85 in 10.0 mi SSE 8.1 mph - N/A   Clear
4:15 AM 62.6 °F - 55.4 °F 77% 29.85 in 10.0 mi SSE 6.9 mph - N/A   Clear
4:35 AM 62.6 °F - 55.4 °F 77% 29.85 in 10.0 mi SSE 8.1 mph - N/A   Clear
4:55 AM 62.6 °F - 55.4 °F 77% 29.85 in 10.0 mi SSE 8.1 mph - N/A   Clear
5:15 AM 62.6 °F - 57.2 °F 82% 29.85 in 10.0 mi SE 9.2 mph - N/A   Clear
5:35 AM 64.4 °F - 57.2 °F 77% 29.85 in 10.0 mi Calm Calm - N/A   Clear
5:55 AM 64.4 °F - 57.2 °F 77% 29.85 in 10.0 mi SSE 9.2 mph - N/A   Clear
6:20 AM 62.6 °F - 57.2 °F 82% 29.86 in 10.0 mi SE 11.5 mph - N/A   Clear
7:47 AM 60.8 °F - 57.2 °F 88% 29.89 in 100.0 mi SE 8.1 mph - N/A   Clear
10:50 AM 80.6 °F 82.3 °F 64.4 °F 58% 29.90 in 10.0 mi SSE 19.6 mph 27.6 mph N/A   Clear
11:50 AM 86.0 °F 87.3 °F 64.4 °F 48% 29.89 in 10.0 mi SSE 18.4 mph 27.6 mph N/A   Clear
12:58 PM 87.8 °F 88.5 °F 62.6 °F 43% 29.86 in 10.0 mi SSE 19.6 mph 26.5 mph N/A   Scattered Clouds
1:50 PM 87.8 °F 88.5 °F 62.6 °F 43% 29.84 in 10.0 mi South 18.4 mph 32.2 mph N/A   Scattered Clouds
2:50 PM 89.6 °F 90.1 °F 62.6 °F 40% 29.82 in 10.0 mi SSE 20.7 mph 29.9 mph N/A   Scattered Clouds
3:50 PM 87.8 °F 87.6 °F 60.8 °F 40% 29.79 in 10.0 mi SSE 21.9 mph 28.8 mph N/A   Scattered Clouds
4:50 PM 89.6 °F 89.5 °F 60.8 °F 38% 29.79 in 10.0 mi SE 23.0 mph - N/A   Scattered Clouds
5:50 PM 86.0 °F 86.1 °F 60.8 °F 43% 29.79 in 10.0 mi SE 18.4 mph - N/A   Mostly Cloudy
6:50 PM 86.0 °F 86.1 °F 60.8 °F 43% 29.78 in 10.0 mi SE 19.6 mph 25.3 mph N/A   Scattered Clouds
7:50 PM 80.6 °F 81.8 °F 62.6 °F 54% 29.77 in 10.0 mi SE 16.1 mph 23.0 mph N/A   Scattered Clouds
8:50 PM 80.6 °F 81.8 °F 62.6 °F 54% 29.78 in 10.0 mi SE 17.3 mph - N/A   Mostly Cloudy
9:15 PM 78.8 °F - 62.6 °F 57% 29.80 in 10.0 mi SSE 13.8 mph 21.9 mph N/A   Clear
9:35 PM 78.8 °F - 62.6 °F 57% 29.80 in 10.0 mi SSE 13.8 mph - N/A   Clear
9:55 PM 77.0 °F - 62.6 °F 61% 29.80 in 10.0 mi SE 12.7 mph - N/A   Clear
10:15 PM 77.0 °F - 62.6 °F 61% 29.80 in 10.0 mi SE 13.8 mph - N/A   Clear
10:35 PM 77.0 °F - 64.4 °F 65% 29.81 in 10.0 mi SSE 12.7 mph - N/A   Clear
10:55 PM 77.0 °F - 64.4 °F 65% 29.81 in 10.0 mi SSE 12.7 mph - N/A   Clear
11:15 PM 77.0 °F - 64.4 °F 65% 29.80 in 10.0 mi SSE 12.7 mph - N/A   Clear
11:35 PM 75.2 °F - 64.4 °F 69% 29.81 in 10.0 mi SSE 9.2 mph - N/A   Scattered Clouds
11:55 PM 73.4 °F - 64.4 °F 73% 29.80 in 10.0 mi SSE 10.4 mph - N/A   Scattered Clouds